| time (UTC) | temp C | wind direction | speed KPH | gust KPH | rain 1hr cm | rain 24hr cm | rain mn cm | humidity % | barometer mb |
| 20260904170046 | 30 | 63 | 0.0 | 11.3 | 0.00 | 0.00 | 0.00 | 68 | 1013.3 |
| 20260904164547 | 30 | 100 | 3.2 | 8.0 | 0.00 | 0.00 | 0.00 | 68 | 1013.4 |
| 20260904163046 | 29 | 124 | 0.0 | 6.4 | 0.00 | 0.00 | 0.00 | 69 | 1013.4 |
| 20260904161554 | 30 | 231 | 0.0 | 4.8 | 0.00 | 0.00 | 0.00 | 69 | 1013.4 |
| 20260904160041 | 28 | 70 | 1.6 | 11.3 | 0.00 | 0.00 | 0.00 | 69 | 1013.4 |
| 20260904154543 | 29 | 53 | 1.6 | 4.8 | 0.00 | 0.00 | 0.00 | 69 | 1013.3 |
| 20260904153041 | 27 | 65 | 0.0 | 6.4 | 0.00 | 0.00 | 0.00 | 64 | 1013.2 |
| 20260904151535 | 27 | 62 | 0.0 | 4.8 | 0.00 | 0.00 | 0.00 | 66 | 1013.2 |
| 20260904150033 | 27 | 97 | 0.0 | 4.8 | 0.00 | 0.00 | 0.00 | 66 | 1013.3 |
| 20260904144532 | 27 | 21 | 0.0 | 4.8 | 0.00 | 0.00 | 0.00 | 66 | 1013.2 |
| 20260904143030 | 27 | 15 | 0.0 | 4.8 | 0.00 | 0.00 | 0.00 | 65 | 1013.1 |
| 20260904141527 | 27 | 67 | 0.0 | 4.8 | 0.00 | 0.00 | 0.00 | 63 | 1012.8 |
| 20260904140024 | 27 | 253 | 0.0 | 4.8 | 0.00 | 0.00 | 0.00 | 62 | 1012.7 |
| 20260904134522 | 26 | 264 | 0.0 | 1.6 | 0.00 | 0.00 | 0.00 | 42 | 1012.6 |
| 20260904133027 | 25 | 264 | 0.0 | 1.6 | 0.00 | 0.00 | 0.00 | 35 | 1012.6 |
| 20260904131519 | 25 | 264 | 0.0 | 1.6 | 0.00 | 0.00 | 0.00 | 23 | 1012.3 |
| 20260904130016 | -17 | 0.0 | 0.0 | 0.00 | 0.00 | 0.00 | 1012.1 | ||
| 20260904124512 | -17 | 0.0 | 0.0 | 0.00 | 0.00 | 0.00 | 1012.1 | ||
| 20260904123007 | -17 | 0.0 | 0.0 | 0.00 | 0.00 | 0.00 | 1011.9 | ||
| 20260904121502 | -17 | 0.0 | 0.0 | 0.00 | 0.00 | 0.00 | 1011.7 | ||
| 20260904114601 | -17 | 0.0 | 0.0 | 0.00 | 0.00 | 0.00 | 1011.6 | ||
| 20260904113050 | -17 | 0.0 | 0.0 | 0.00 | 0.00 | 0.00 | 1011.5 | ||
| 20260904111545 | -17 | 0.0 | 0.0 | 0.00 | 0.00 | 0.00 | 1011.5 | ||
| 20260904110042 | -17 | 0.0 | 0.0 | 0.00 | 0.00 | 0.00 | 1011.4 | ||
| 20260904104601 | -17 | 0.0 | 0.0 | 0.00 | 0.00 | 0.00 | 1011.4 | ||
| 20260904103035 | -17 | 0.0 | 0.0 | 0.00 | 0.00 | 0.00 | 1011.4 | ||
| 20260904101537 | -17 | 0.0 | 0.0 | 0.00 | 0.00 | 0.00 | 1011.4 | ||
| 20260904100024 | -17 | 0.0 | 0.0 | 0.00 | 0.00 | 0.00 | 1011.5 | ||
| 20260904094519 | -17 | 0.0 | 0.0 | 0.00 | 0.00 | 0.00 | 1011.4 | ||
| 20260904093013 | -17 | 0.0 | 0.0 | 0.00 | 0.00 | 0.00 | 1011.4 | ||
| 20260904091509 | -17 | 0.0 | 0.0 | 0.00 | 0.00 | 0.00 | 1011.3 | ||
| 20260904090013 | -17 | 0.0 | 0.0 | 0.00 | 0.00 | 0.00 | 1011.4 | ||
| 20260904084500 | -17 | 0.0 | 0.0 | 0.00 | 0.00 | 0.00 | 1011.5 | ||
| 20260904083101 | 25 | 85 | 4.8 | 9.7 | 0.00 | 0.00 | 0.00 | 50 | 1011.5 |
| 20260904081555 | 25 | 90 | 8.0 | 11.3 | 0.00 | 0.00 | 0.00 | 51 | 1011.7 |
| 20260904080111 | 25 | 74 | 8.0 | 17.7 | 0.00 | 0.00 | 0.00 | 55 | 1011.8 |
| 20260904074600 | 25 | 76 | 6.4 | 12.9 | 0.00 | 0.00 | 0.00 | 59 | 1011.7 |
| 20260904073048 | 25 | 64 | 9.7 | 14.5 | 0.00 | 0.00 | 0.00 | 61 | 1011.9 |
| 20260904071546 | 26 | 103 | 4.8 | 12.9 | 0.00 | 0.00 | 0.00 | 64 | 1011.8 |
| 20260904070045 | 26 | 68 | 6.4 | 16.1 | 0.00 | 0.00 | 0.00 | 64 | 1011.7 |
| 20260904064541 | 26 | 86 | 9.7 | 16.1 | 0.00 | 0.00 | 0.00 | 67 | 1012.2 |
| 20260904063046 | 26 | 83 | 9.7 | 12.9 | 0.00 | 0.00 | 0.00 | 69 | 1012.2 |
| 20260904061535 | 26 | 53 | 6.4 | 12.9 | 0.00 | 0.00 | 0.00 | 69 | 1012.3 |
| 20260904060100 | 26 | 68 | 11.3 | 14.5 | 0.00 | 0.00 | 0.00 | 69 | 1012.3 |
| 20260904054532 | 27 | 51 | 8.0 | 19.3 | 0.00 | 0.00 | 0.00 | 69 | 1012.2 |
| 20260904053057 | 27 | 59 | 12.9 | 20.9 | 0.00 | 0.00 | 0.00 | 68 | 1012.4 |
| 20260904051536 | 27 | 60 | 12.9 | 22.5 | 0.00 | 0.00 | 0.00 | 68 | 1012.4 |
| 20260904050034 | 27 | 79 | 9.7 | 19.3 | 0.00 | 0.00 | 0.00 | 65 | 1012.3 |
| 20260904044529 | 28 | 94 | 12.9 | 20.9 | 0.00 | 0.00 | 0.00 | 63 | 1012.2 |
| 20260904043028 | 28 | 62 | 16.1 | 27.4 | 0.00 | 0.00 | 0.00 | 61 | 1012.2 |
| 20260904041528 | 28 | 90 | 11.3 | 25.7 | 0.00 | 0.00 | 0.00 | 58 | 1012.1 |
| 20260904040027 | 28 | 98 | 12.9 | 29.0 | 0.00 | 0.00 | 0.00 | 57 | 1011.9 |
| 20260904034526 | 29 | 63 | 19.3 | 25.7 | 0.00 | 0.00 | 0.00 | 56 | 1011.7 |
| 20260904033025 | 30 | 55 | 16.1 | 24.1 | 0.00 | 0.00 | 0.00 | 54 | 1011.5 |
| 20260904031524 | 30 | 97 | 8.0 | 22.5 | 0.00 | 0.00 | 0.00 | 53 | 1011.1 |
| 20260904030024 | 30 | 71 | 4.8 | 22.5 | 0.00 | 0.00 | 0.00 | 51 | 1010.9 |
| 20260904024523 | 31 | 107 | 11.3 | 35.4 | 0.00 | 0.00 | 0.00 | 49 | 1010.5 |
| 20260904023021 | 33 | 82 | 6.4 | 11.3 | 0.00 | 0.00 | 0.00 | 43 | 1010.0 |
| 20260904021524 | 33 | 122 | 6.4 | 14.5 | 0.00 | 0.00 | 0.00 | 44 | 1009.9 |
| 20260904020021 | 33 | 61 | 6.4 | 17.7 | 0.00 | 0.00 | 0.00 | 44 | 1009.5 |
| 20260904014520 | 33 | 86 | 8.0 | 14.5 | 0.00 | 0.00 | 0.00 | 44 | 1009.5 |
| 20260904013019 | 32 | 66 | 4.8 | 9.7 | 0.00 | 0.00 | 0.00 | 44 | 1009.5 |
| 20260904011518 | 32 | 95 | 3.2 | 11.3 | 0.00 | 0.00 | 0.00 | 43 | 1009.3 |
| 20260904010017 | 32 | 66 | 9.7 | 20.9 | 0.00 | 0.00 | 0.00 | 43 | 1009.1 |
| 20260904004516 | 33 | 79 | 3.2 | 9.7 | 0.00 | 0.00 | 0.00 | 45 | 1009.1 |
| 20260904003015 | 33 | 101 | 3.2 | 16.1 | 0.00 | 0.00 | 0.00 | 45 | 1009.4 |
| 20260904001514 | 33 | 91 | 4.8 | 12.9 | 0.00 | 0.00 | 0.00 | 47 | 1009.6 |
| 20260904000014 | 33 | 65 | 4.8 | 11.3 | 0.00 | 0.00 | 0.00 | 46 | 1009.6 |
| 20260903234514 | 33 | 94 | 6.4 | 12.9 | 0.00 | 0.00 | 0.00 | 46 | 1009.6 |
| 20260903233012 | 32 | 182 | 1.6 | 4.8 | 0.00 | 0.00 | 0.00 | 47 | 1009.5 |
| 20260903231512 | 32 | 27 | 0.0 | 3.2 | 0.00 | 0.00 | 0.00 | 47 | 1009.4 |
| 20260903230014 | 32 | 27 | 0.0 | 11.3 | 0.00 | 0.00 | 0.00 | 47 | 1009.4 |
| 20260903224511 | 33 | 37 | 3.2 | 14.5 | 0.00 | 0.00 | 0.00 | 46 | 1009.3 |
| 20260903223014 | 35 | 29 | 8.0 | 16.1 | 0.00 | 0.00 | 0.00 | 44 | 1009.0 |
| 20260903221510 | 35 | 63 | 9.7 | 17.7 | 0.00 | 0.00 | 0.00 | 41 | 1008.8 |
| 20260903220009 | 35 | 80 | 9.7 | 14.5 | 0.00 | 0.00 | 0.00 | 41 | 1008.9 |
| 20260903214508 | 35 | 74 | 4.8 | 12.9 | 0.00 | 0.00 | 0.00 | 43 | 1008.9 |
| 20260903213005 | 35 | 82 | 9.7 | 16.1 | 0.00 | 0.00 | 0.00 | 43 | 1009.3 |
| 20260903211504 | 35 | 70 | 11.3 | 17.7 | 0.00 | 0.00 | 0.00 | 43 | 1009.1 |
| 20260903210003 | 35 | 78 | 4.8 | 14.5 | 0.00 | 0.00 | 0.00 | 43 | 1009.4 |
| 20260903204600 | 35 | 55 | 12.9 | 17.7 | 0.00 | 0.00 | 0.00 | 42 | 1009.7 |
| 20260903204502 | 36 | 90 | 11.3 | 14.5 | 0.00 | 0.00 | 0.00 | 42 | 1009.7 |
| 20260903203056 | 36 | 41 | 6.4 | 14.5 | 0.00 | 0.00 | 0.00 | 42 | 1009.7 |
| 20260903201554 | 36 | 86 | 6.4 | 16.1 | 0.00 | 0.00 | 0.00 | 43 | 1009.9 |
| 20260903200051 | 35 | 111 | 3.2 | 19.3 | 0.00 | 0.00 | 0.00 | 42 | 1010.1 |
| 20260903194549 | 35 | 26 | 6.4 | 14.5 | 0.00 | 0.00 | 0.00 | 43 | 1010.3 |
| 20260903193047 | 35 | 131 | 6.4 | 14.5 | 0.00 | 0.00 | 0.00 | 45 | 1010.4 |
| 20260903191543 | 35 | 57 | 6.4 | 16.1 | 0.00 | 0.00 | 0.00 | 48 | 1010.7 |
| 20260903190040 | 35 | 110 | 6.4 | 14.5 | 0.00 | 0.00 | 0.00 | 47 | 1011.0 |
| 20260903184548 | 35 | 101 | 4.8 | 12.9 | 0.00 | 0.00 | 0.00 | 49 | 1011.3 |
| 20260903183034 | 35 | 71 | 4.8 | 14.5 | 0.00 | 0.00 | 0.00 | 49 | 1011.6 |
| 20260903181537 | 34 | 135 | 6.4 | 12.9 | 0.00 | 0.00 | 0.00 | 49 | 1011.8 |
| 20260903180034 | 33 | 85 | 4.8 | 12.9 | 0.00 | 0.00 | 0.00 | 53 | 1012.3 |
| 20260903174527 | 33 | 67 | 3.2 | 9.7 | 0.00 | 0.00 | 0.00 | 54 | 1012.5 |
| 20260903173021 | 33 | 48 | 3.2 | 9.7 | 0.00 | 0.00 | 0.00 | 56 | 1012.8 |
| 20260903171525 | 32 | 103 | 4.8 | 11.3 | 0.00 | 0.00 | 0.00 | 59 | 1013.0 |